FW4335 Weather Reports


Display with metric or nautical units.
time (UTC)temp
F
wind
direction
speed
MPH
gust
MPH
rain 1hr
in
rain 24hr
in
rain mn
in
humidity
%
barometer
mb
20260905024536 57 201 0.0 2.0 0.00 0.02 0.02 85 1017.8
20260905023037 58 202 0.0 0.0 0.00 0.02 0.02 83 1017.9
20260905021537 60 219 0.0 2.0 0.00 0.02 0.02 78 1017.7
20260905014536 64 22 0.0 0.0 0.00 0.02 0.02 72 1017.3
20260905013034 64 22 0.0 0.0 0.00 0.02 0.02 75 1017.0
20260905010031 64 33 0.0 4.0 0.00 0.02 0.02 73 1017.0
20260905004536 64 6 0.0 4.0 0.00 0.02 0.02 73 1016.9
20260905003145 65 336 0.0 3.0 0.00 0.02 0.02 73 1016.7
20260905001535 64 226 0.0 0.0 0.00 0.02 0.02 74 1016.8
20260904234649 64 247 0.0 1.0 0.00 0.02 0.02 74 1016.7
20260904233034 64 244 0.0 2.0 0.00 0.02 0.02 74 1016.8
20260904231532 63 159 0.0 1.0 0.00 0.02 0.02 76 1016.8
20260904230032 62 175 0.0 3.0 0.00 0.02 0.02 73 1016.9
20260904224536 65 211 2.0 6.0 0.00 0.02 0.02 64 1016.7
20260904223035 66 200 0.0 3.0 0.00 0.02 0.02 61 1016.6
20260904220031 67 229 0.0 2.0 0.00 0.02 0.02 62 1016.4
20260904214535 67 216 0.0 2.0 0.00 0.02 0.02 65 1016.4
20260904213035 65 202 0.0 1.0 0.00 0.02 0.02 68 1016.4
20260904211609 64 192 0.0 3.0 0.00 0.02 0.02 70 1016.3
20260904210108 64 80 0.0 0.0 0.00 0.02 0.02 69 1016.3
20260904204534 64 157 0.0 0.0 0.00 0.02 0.02 69 1016.3
20260904203034 64 150 0.0 3.0 0.00 0.02 0.02 69 1016.4
20260904201534 63 142 1.0 3.0 0.00 0.02 0.02 72 1016.5
20260904200033 63 114 0.0 2.0 0.00 0.02 0.02 73 1016.6
20260904194536 63 93 0.0 0.0 0.00 0.02 0.02 74 1016.7
20260904193034 62 22 0.0 1.0 0.00 0.02 0.02 75 1016.9
20260904191531 62 359 0.0 2.0 0.00 0.02 0.02 75 1016.9
20260904184534 60 22 0.0 0.0 0.00 0.02 0.02 81 1017.1
20260904183044 60 314 0.0 0.0 0.00 0.02 0.02 82 1017.1
20260904180034 57 292 0.0 0.0 0.00 0.02 0.02 86 1017.0
20260904174534 57 292 0.0 0.0 0.00 0.02 0.02 87 1017.1
20260904173033 58 255 0.0 2.0 0.00 0.02 0.02 86 1017.1
20260904171607 58 257 0.0 4.0 0.00 0.02 0.02 88 1017.0
20260904170053 58 299 0.0 1.0 0.00 0.02 0.02 89 1017.0
20260904164534 57 359 0.0 3.0 0.00 0.02 0.02 92 1016.9
20260904161607 54 157 0.0 0.0 0.00 0.02 0.02 96 1016.9
20260904160034 54 157 0.0 0.0 0.00 0.02 0.02 98 1016.9
20260904154534 53 157 0.0 0.0 0.00 0.02 0.02 98 1016.8
20260904153033 52 168 0.0 0.0 0.00 0.02 0.02 98 1016.7
20260904150034 51 225 0.0 0.0 0.00 0.02 0.02 98 1016.5
20260904144643 51 225 0.0 0.0 0.00 0.02 0.02 98 1016.4
20260904143035 50 225 0.0 0.0 0.00 0.02 0.02 98 1016.3
20260904141535 50 225 0.0 0.0 0.00 0.02 0.02 98 1016.1
20260904134535 50 225 0.0 0.0 0.01 0.02 0.02 98 1015.8
20260904133035 50 225 0.0 0.0 0.01 0.02 0.02 98 1015.7
20260904130035 49 225 0.0 0.0 0.00 0.01 0.01 98 1015.3
20260904124648 50 225 0.0 0.0 0.00 0.01 0.01 98 1015.3
20260904121534 49 225 0.0 0.0 0.00 0.01 0.01 98 1015.2
20260904114649 50 225 0.0 0.0 0.00 0.01 0.01 98 1014.9
20260904113110 50 225 0.0 0.0 0.00 0.01 0.01 98 1014.8
20260904111532 50 225 0.0 0.0 0.01 0.01 0.01 98 1014.7
20260904110033 50 225 0.0 0.0 0.01 0.01 0.01 98 1014.6
20260904101532 49 225 0.0 0.0 0.00 0.00 0.00 97 1014.2
20260904100034 49 225 0.0 0.0 0.00 0.00 0.00 97 1014.2
20260904093034 48 204 0.0 1.0 0.00 0.00 0.00 97 1014.0
20260904091532 48 202 0.0 0.0 0.00 0.00 0.00 97 1014.0
20260904090034 49 202 0.0 0.0 0.00 0.00 0.00 97 1013.9
20260904083033 49 234 0.0 1.0 0.00 0.00 0.00 96 1013.8
20260904081535 49 247 0.0 0.0 0.00 0.00 0.00 96 1013.7
20260904074537 49 247 0.0 0.0 0.00 0.00 0.00 96 1013.8
20260904073033 49 247 0.0 0.0 0.00 0.00 0.00 96 1013.8
20260904071535 49 247 0.0 0.0 0.00 0.00 0.00 96 1013.8
20260904070037 49 247 0.0 0.0 0.00 0.00 0.00 95 1013.7
20260904064535 50 247 0.0 0.0 0.00 0.00 0.00 95 1013.7
20260904063036 50 247 0.0 0.0 0.00 0.00 0.00 95 1013.6
20260904061536 50 247 0.0 0.0 0.00 0.00 0.00 95 1013.6
20260904060032 51 247 0.0 0.0 0.00 0.00 0.00 94 1013.6
20260904054609 51 273 0.0 1.0 0.00 0.00 0.00 94 1013.6
20260904051607 52 315 0.0 0.0 0.00 0.00 0.00 94 1013.6
20260904050109 52 263 0.0 0.0 0.00 0.00 0.00 93 1013.6
20260904044609 52 202 0.0 0.0 0.00 0.00 0.00 93 1013.7
20260904043109 53 202 0.0 0.0 0.00 0.00 0.00 93 1013.7
20260904041536 53 202 0.0 0.0 0.00 0.00 0.00 92 1013.7
20260904040036 53 202 0.0 1.0 0.00 0.00 0.00 90 1013.6
20260904031535 53 292 0.0 0.0 0.00 0.00 0.00 87 1013.3
20260904030111 54 332 0.0 0.0 0.00 0.00 0.00 86 1013.2